Weather History for Decatur, AL

Change the Weather History Date:

Friday, September 6, 2013

  Actual Average Record
Temperature  
Mean Temperature 74 °F -  
Max Temperature 89 °F 87 °F 103 °F (1954)
Min Temperature 60 °F 62 °F 49 °F (1950)
Cooling Degree Days 9    
Growing Degree Days 24 (Base 50)    
Moisture  
Dew Point 64 °F    
Average Humidity 77    
Maximum Humidity 100    
Minimum Humidity 46    
Precipitation  
Precipitation 0.00 in - - ()
Sea Level Pressure  
Sea Level Pressure 30.11 in    
Wind  
Wind Speed 2 mph (SSE)    
Max Wind Speed 6 mph    
Max Gust Speed -    
Visibility 9 miles    
Events      
Averages and records for this station are not official NWS values.
T = Trace of Precipitation, MM = Missing Value Source: NWS Daily Summary

Daily Weather History Graph

Daily Weather History Graph

Search for Another Location

Airport:

Trip Planner

Search our weather history database for the weather conditions in past years. The results will help you decide how hot, cold, wet, or windy it might be!

Date:

Astronomy

Sep. 06, 2013 Rise Set
Actual Time 6:24 AM CDT 7:06 PM CDT
Civil Twilight 5:59 AM CDT 7:32 PM CDT
Nautical Twilight 5:28 AM CDT 8:02 PM CDT
Astronomical Twilight 4:58 AM CDT 8:33 PM CDT
Moon 7:31 AM CDT (9/6) 7:37 PM CDT (9/6)
Length of Visible Light 13h 33m
Length of Day
12h 42m
New Moon, 2% of the Moon is Illuminated
Sep 6
New Moon
Sep 12
First Quarter
Sep 19
Full
Sep 26
Last Quarter
Oct 4
New

Hourly Weather History & Observations

Time (CDT) Temp. Heat Index Dew Point Humidity Pressure Visibility Wind Dir Wind Speed Gust Speed Precip Events Conditions
12:53 AM 64.9 °F - 63.0 °F 93% 30.13 in 9.0 mi North 5.8 mph - N/A   Clear
1:53 AM 66.0 °F - 62.1 °F 87% 30.12 in 10.0 mi Calm Calm - N/A   Clear
2:53 AM 63.0 °F - 61.0 °F 93% 30.12 in 10.0 mi Calm Calm - N/A   Clear
3:53 AM 63.0 °F - 61.0 °F 93% 30.11 in 9.0 mi Calm Calm - N/A   Clear
4:53 AM 62.1 °F - 60.1 °F 93% 30.12 in 8.0 mi Calm Calm - N/A   Clear
5:53 AM 62.1 °F - 60.1 °F 93% 30.12 in 8.0 mi Calm Calm - N/A   Clear
6:43 AM 60.8 °F - 59.0 °F 94% 30.15 in 1.8 mi Calm Calm - N/A   Clear
6:53 AM 61.0 °F - 60.1 °F 97% 30.14 in 1.8 mi Calm Calm - N/A   Clear
6:55 AM 60.8 °F - 60.8 °F 100% 30.15 in 3.0 mi Calm Calm - N/A   Clear
7:53 AM 68.0 °F - 64.0 °F 87% 30.15 in 10.0 mi Calm Calm - N/A   Clear
8:53 AM 73.0 °F - 66.0 °F 79% 30.15 in 10.0 mi Calm Calm - N/A   Clear
9:53 AM 79.0 °F - 66.0 °F 64% 30.15 in 10.0 mi ESE 3.5 mph - N/A   Clear
10:53 AM 81.0 °F 83.0 °F 66.0 °F 60% 30.15 in 10.0 mi ESE 3.5 mph - N/A   Clear
11:53 AM 84.9 °F 87.1 °F 66.0 °F 53% 30.14 in 10.0 mi Calm Calm - N/A   Clear
12:53 PM 86.0 °F 86.8 °F 63.0 °F 46% 30.13 in 10.0 mi South 3.5 mph - N/A   Clear
1:53 PM 87.1 °F 88.3 °F 64.0 °F 46% 30.10 in 10.0 mi SSW 3.5 mph - N/A   Clear
2:53 PM 88.0 °F 90.7 °F 66.9 °F 49% 30.09 in 10.0 mi Variable 3.5 mph - N/A   Clear
3:53 PM 88.0 °F 89.6 °F 64.9 °F 46% 30.06 in 10.0 mi Calm Calm - N/A   Clear
4:53 PM 87.1 °F 88.9 °F 64.9 °F 48% 30.06 in 10.0 mi South 3.5 mph - N/A   Clear
5:53 PM 84.9 °F 88.2 °F 68.0 °F 57% 30.06 in 10.0 mi Calm Calm - N/A   Clear
6:53 PM 77.0 °F - 69.1 °F 76% 30.06 in 10.0 mi Calm Calm - N/A   Clear
7:53 PM 73.0 °F - 68.0 °F 84% 30.05 in 10.0 mi Calm Calm - N/A   Clear
8:53 PM 69.1 °F - 64.9 °F 87% 30.07 in 10.0 mi Calm Calm - N/A   Clear
9:53 PM 69.1 °F - 64.9 °F 87% 30.08 in 10.0 mi Calm Calm - N/A   Clear
10:53 PM 66.9 °F - 64.0 °F 90% 30.07 in 10.0 mi Calm Calm - N/A   Clear
11:53 PM 66.0 °F - 64.0 °F 93% 30.07 in 9.0 mi Calm Calm - N/A   Unknown